カタログに戻る

STARLINK-5335

運用中通信VLEO
NORAD 56508·PAYLOAD·🇺🇸 United States

打ち上げ May 14, 2023 から Cape Canaveral Space Force Station

Loading…

次のパス (今後24時間)

TLE

最新Source: CelesTrak SupGP

元期: Sep 15, 2026, 03:11 UTC

1 56508C 23065F   26258.13312500 -.00019086  00000+0 -69149-3 0  2583
2 56508  43.0005 222.2251 0001533 271.6698 215.0900 15.27578655    14

AllMySatでSTARLINK-5335をリアルタイム追跡

Download on the App Store